Wind_Speed
112 107 104 94 86 80 75 72 67 75 69 76 83 79 78 77 82 81 84 89 90 89 85 78 77 68 64 70 74 76 79 83 84 85 91 94 97 102 104 99 97 88 91
111 109 101 95 85 71 68 63 54 79 77 79 82 81 82 82 81 85 86 87 85 75 74 73 67 64 70 72 75 77 82 85 88 92 95 98 100 104 101 98 92 92 98
108 108 93 91 79 73 67 62 64 64 75 78 74 80 82 78 80 81 76 75 71 70 65 71 63 69 72 76 77 82 85 89 92 96 99 100 105 103 100 94 92 97 101
102 102 84 80 76 69 64 55 55 55 56 61 73 80 81 80 76 78 80 72 69 66 67 63 68 72 73 79 84 85 90 94 95 100 99 105 105 100 95 90 99 104 109
93 84 83 68 66 66 65 57 57 60 64 63 68 75 76 70 74 73 70 69 65 64 62 65 69 74 79 84 89 90 92 94 102 102 103 107 103 100 96 97 99 104 112
78 76 76 60 62 66 61 51 52 50 56 63 68 69 65 68 70 70 70 68 65 64 66 72 75 77 80 88 91 95 95 101 104 105 107 107 104 97 97 99 104 108 109
71 67 59 56 55 57 52 49 55 64 68 66 71 71 69 67 68 71 70 69 69 69 70 77 78 82 84 88 94 99 101 105 107 107 109 107 104 99 100 103 109 114 113
67 64 61 41 53 51 54 46 55 65 66 78 75 71 75 67 73 75 74 71 70 73 78 78 84 85 87 90 95 101 104 108 111 111 110 106 102 100 103 104 111 114 95
70 69 49 60 72 61 55 39 58 66 78 77 81 82 78 69 75 75 71 74 77 77 82 86 83 88 91 94 104 106 111 112 111 110 107 103 102 103 106 109 112 93 80
65 61 38 53 66 61 54 63 79 69 81 91 88 80 76 74 77 70 75 81 78 82 86 90 89 90 93 99 106 111 113 113 112 109 105 103 105 108 110 108 94 80 64
65 47 57 69 55 57 58 71 83 89 95 93 84 80 80 80 75 75 82 86 87 88 92 91 92 95 96 103 112 116 116 112 107 106 102 104 107 112 111 94 79 68 53
70 44 51 60 61 66 93 75 86 94 92 86 80 79 85 89 85 87 84 89 86 86 90 88 95 102 108 111 117 119 112 107 106 101 103 108 110 111 96 82 70 49 39
69 68 72 73 65 61 66 83 93 85 85 86 85 88 94 88 83 86 90 84 87 87 88 101 104 111 111 118 121 114 108 104 101 105 109 109 108 97 85 73 50 37 29
67 72 76 80 83 83 79 79 84 86 94 92 87 84 77 79 84 85 79 86 90 91 100 106 113 116 115 122 114 105 102 100 104 108 110 111 98 84 71 53 38 26 21
72 70 82 75 79 72 75 78 79 78 75 76 77 77 75 83 78 76 85 92 96 104 110 113 114 115 119 108 103 100 99 101 107 112 109 96 84 71 54 39 26 19 12
72 73 74 73 75 73 73 75 77 79 83 79 83 86 93 82 79 85 97 99 104 112 114 112 116 116 104 101 98 95 101 108 111 110 97 84 71 56 41 27 18 11 7
61 60 65 76 81 80 79 79 81 85 90 81 81 78 77 84 91 94 100 108 109 111 108 111 110 100 97 95 93 99 106 112 106 92 86 70 54 44 29 20 13 7 7
62 70 74 74 71 69 76 80 75 75 77 72 71 79 89 95 96 101 107 105 104 105 108 103 97 94 92 93 101 109 114 104 91 78 65 51 41 28 19 13 9 7 9
62 63 63 63 63 66 72 81 83 81 87 90 93 97 101 100 103 101 97 94 98 101 96 92 91 90 93 98 106 112 102 88 74 61 49 39 29 19 14 8 7 8 12
62 61 64 64 63 63 64 69 73 79 83 86 92 95 96 91 85 84 88 94 87 85 86 87 88 91 97 106 110 106 87 73 58 47 37 29 22 15 11 7 8 11 15
57 55 58 61 60 64 67 70 74 76 78 77 76 75 71 77 83 87 85 81 82 83 86 91 93 100 107 112 100 88 75 58 46 35 27 21 18 15 11 7 9 13 17
60 53 53 59 65 68 71 71 68 63 62 63 66 69 75 82 81 75 77 79 82 87 91 98 102 104 112 98 87 73 60 46 36 25 20 17 16 15 13 8 11 14 18
50 55 51 50 54 56 55 59 61 61 65 67 72 76 72 69 71 72 77 84 91 95 99 102 106 109 96 85 72 61 50 41 32 22 18 17 16 14 13 11 11 16 18
48 51 53 52 55 55 57 57 56 59 64 64 62 62 67 72 75 80 84 90 94 99 102 108 99 90 82 72 61 52 45 38 32 26 22 19 18 16 14 15 11 15 20
49 48 49 48 48 50 52 56 55 53 57 62 67 68 69 72 78 84 90 96 102 103 97 93 87 78 71 60 52 47 42 38 33 31 27 24 22 20 19 19 18 17 22
44 46 47 46 46 47 49 52 57 60 61 62 64 70 74 78 84 91 97 101 97 94 89 83 77 68 60 53 47 43 39 37 34 32 30 28 26 23 21 23 22 22 23
Wind_Direction
217 221 225 227 230 233 235 240 246 253 251 257 263 268 271 273 278 282 286 286 291 294 296 298 300 303 308 314 315 317 318 316 319 318 319 321 323 324 324 324 325 324 322
216 218 222 225 226 232 235 232 230 246 253 257 262 268 270 276 276 277 283 287 290 293 296 296 298 305 311 316 315 315 317 318 318 320 322 323 324 325 324 325 325 324 325
212 217 219 224 224 227 235 237 235 242 253 257 262 267 270 271 273 281 283 288 290 292 292 296 301 310 316 316 316 318 317 318 319 321 323 323 324 324 324 325 322 325 325
209 214 215 219 222 221 228 232 236 240 237 256 259 264 267 270 274 279 286 288 290 288 291 296 307 313 313 315 316 317 317 319 320 322 322 323 324 323 323 323 324 325 328
205 208 215 215 218 222 227 230 240 241 246 249 257 260 266 270 276 280 284 284 284 285 292 301 308 310 312 315 316 315 317 319 321 321 323 324 324 324 324 324 322 324 326
196 199 209 210 214 222 227 231 245 256 251 249 257 262 265 270 272 278 279 281 281 285 291 299 306 309 311 313 314 314 318 320 321 322 322 323 323 323 323 322 323 324 323
188 195 201 206 215 221 227 226 233 239 255 252 260 261 263 267 269 273 275 278 281 284 291 298 304 307 311 312 314 316 318 320 321 321 321 321 321 321 322 322 322 321 323
180 183 197 212 224 220 227 236 243 236 245 245 251 249 257 260 264 270 274 276 280 285 293 301 304 307 311 313 314 315 319 319 318 320 320 320 320 320 319 320 320 321 321
180 187 181 195 202 226 229 227 223 237 248 234 243 241 256 258 262 267 270 271 277 286 298 298 305 309 311 312 314 316 317 319 319 319 318 319 319 320 320 321 323 323 321
174 187 184 226 218 224 214 218 223 235 236 241 237 251 251 256 260 263 266 271 277 287 295 300 304 308 310 313 313 316 317 317 318 318 319 319 319 319 319 321 322 323 322
182 178 192 210 218 226 217 220 221 227 233 235 244 245 249 254 256 262 265 272 278 289 293 300 305 308 310 313 314 315 315 317 317 318 318 318 318 319 321 321 323 321 319
178 181 201 195 205 211 226 214 216 217 230 238 243 245 247 250 257 265 267 276 284 292 295 302 306 306 307 311 312 314 314 314 316 314 315 318 318 320 323 323 323 322 319
187 189 197 190 192 196 204 212 223 229 229 238 242 244 251 258 261 263 268 279 288 293 300 300 303 305 310 309 311 311 313 314 315 316 317 318 321 321 321 322 321 319 320
184 198 199 203 210 214 219 223 227 233 237 243 248 250 254 256 261 267 279 281 294 298 296 296 301 305 308 308 309 311 311 312 314 316 317 319 320 320 320 320 319 320 319
186 190 197 207 213 216 220 227 230 236 240 240 245 251 255 257 267 284 277 284 292 289 292 297 301 303 307 306 307 310 310 312 314 315 318 320 319 319 320 317 314 316 312
190 197 200 209 211 215 220 225 230 236 239 244 249 251 255 266 277 281 276 282 284 286 291 299 302 302 304 306 308 309 312 314 314 316 318 318 317 318 320 315 312 307 277
190 194 206 210 211 219 223 228 233 237 240 247 251 258 268 268 268 277 281 282 285 289 298 300 302 302 304 306 310 313 313 314 316 317 316 315 317 318 316 315 305 277 237
202 205 208 212 221 225 227 228 234 237 239 254 263 261 262 271 277 279 280 285 292 297 299 300 300 301 305 309 312 313 315 314 315 316 314 316 318 317 312 311 291 243 219
209 214 219 223 229 233 238 240 243 247 250 255 260 263 266 271 273 280 287 293 296 296 297 299 298 304 308 310 312 314 315 315 316 314 316 318 321 318 313 303 271 216 214
212 216 220 224 229 233 239 244 247 250 252 255 260 267 270 279 283 290 295 293 296 297 296 299 303 306 309 311 312 313 315 315 315 316 318 321 323 323 314 292 243 211 209
214 219 224 230 235 236 239 245 251 257 261 265 269 273 279 284 291 291 292 295 295 297 301 304 303 305 310 311 314 314 314 314 315 318 323 331 336 332 319 278 230 212 210
225 231 239 242 242 243 246 252 256 259 263 268 273 278 283 286 288 290 291 291 296 300 302 302 304 306 309 312 312 311 310 311 310 312 318 328 333 337 327 291 243 217 213
227 231 237 242 245 249 251 257 261 265 269 274 277 277 280 286 290 293 294 296 297 298 301 304 303 306 309 311 309 308 307 305 301 295 296 301 305 312 317 305 263 236 220
222 227 230 238 244 248 253 260 271 273 273 275 281 286 289 290 292 296 297 299 298 300 301 303 306 309 310 309 306 304 304 300 293 284 281 283 284 288 288 286 276 246 231
226 230 241 245 252 257 258 261 267 275 280 282 283 286 289 291 293 296 298 298 299 301 303 305 308 308 308 306 304 303 301 296 290 282 274 273 273 275 275 269 261 251 237
235 239 244 252 259 262 269 272 272 274 276 279 282 290 291 290 294 296 296 300 302 305 307 307 310 308 307 305 303 301 298 294 291 285 278 272 270 270 270 267 258 245 239
Height
10657 10674 10688 10712 10731 10745 10761 10776 10785 10783 10785 10785 10783 10781 10782 10782 10782 10780 10776 10773 10772 10768 10763 10756 10749 10742 10735 10727 10721 10713 10705 10695 10684 10673 10661 10649 10633 10615 10597 10581 10568 10552 10535
10635 10652 10677 10698 10724 10740 10753 10769 10782 10781 10776 10775 10773 10773 10771 10772 10772 10770 10766 10763 10760 10755 10749 10743 10737 10730 10723 10714 10707 10701 10693 10683 10669 10655 10641 10628 10614 10597 10581 10565 10551 10541 10524
10613 10637 10669 10695 10717 10732 10745 10757 10769 10773 10768 10765 10767 10764 10762 10761 10760 10759 10753 10751 10746 10741 10737 10731 10725 10717 10708 10701 10694 10686 10679 10671 10657 10643 10629 10614 10601 10586 10567 10545 10532 10521 10508
10598 10632 10668 10690 10708 10724 10736 10747 10753 10757 10753 10755 10754 10749 10750 10749 10749 10745 10743 10738 10734 10731 10724 10720 10712 10704 10696 10687 10682 10674 10665 10656 10644 10630 10616 10601 10586 10569 10554 10542 10517 10500 10490
10596 10635 10663 10682 10698 10713 10728 10740 10745 10751 10750 10746 10740 10738 10740 10739 10736 10735 10732 10726 10725 10720 10713 10707 10699 10691 10684 10675 10668 10662 10652 10641 10629 10615 10601 10585 10570 10552 10537 10522 10510 10494 10474
10596 10631 10655 10676 10690 10704 10718 10734 10738 10736 10737 10730 10728 10727 10726 10727 10726 10724 10720 10717 10714 10711 10701 10695 10685 10678 10670 10662 10656 10649 10638 10626 10613 10600 10586 10571 10555 10539 10524 10509 10495 10482 10473
10595 10625 10651 10668 10686 10701 10713 10724 10734 10729 10723 10719 10718 10716 10719 10718 10716 10713 10710 10706 10705 10698 10691 10683 10674 10667 10657 10650 10645 10636 10624 10610 10598 10584 10571 10557 10541 10526 10512 10497 10478 10462 10450
10588 10614 10644 10659 10685 10694 10704 10708 10710 10712 10711 10709 10706 10709 10712 10708 10706 10703 10700 10696 10692 10684 10678 10668 10663 10654 10645 10638 10632 10622 10609 10597 10586 10571 10556 10541 10528 10514 10498 10485 10469 10446 10428
10588 10612 10636 10673 10691 10685 10691 10699 10693 10696 10699 10698 10697 10701 10702 10699 10695 10692 10690 10684 10679 10672 10663 10657 10648 10640 10632 10628 10620 10607 10594 10582 10569 10554 10540 10524 10510 10495 10482 10466 10448 10429 10411
10593 10613 10634 10652 10667 10679 10684 10687 10694 10695 10693 10685 10690 10691 10691 10686 10684 10682 10677 10672 10668 10660 10654 10644 10635 10627 10621 10612 10603 10592 10580 10566 10551 10535 10520 10505 10489 10475 10463 10450 10433 10418 10405
10591 10617 10637 10652 10660 10658 10672 10677 10676 10676 10675 10679 10682 10681 10680 10674 10671 10669 10665 10659 10655 10647 10641 10631 10623 10615 10608 10598 10589 10577 10565 10551 10536 10521 10506 10490 10475 10461 10446 10429 10417 10405 10394
10594 10607 10627 10642 10648 10657 10662 10660 10662 10667 10666 10668 10671 10667 10663 10660 10656 10658 10655 10649 10641 10633 10626 10618 10608 10602 10596 10586 10576 10565 10553 10536 10523 10507 10491 10477 10461 10444 10428 10415 10404 10395 10385
10585 10601 10613 10624 10636 10640 10644 10650 10657 10655 10655 10655 10653 10652 10653 10652 10650 10646 10641 10634 10628 10621 10609 10605 10598 10589 10582 10572 10561 10552 10536 10521 10504 10490 10476 10462 10448 10432 10417 10405 10396 10387 10381
10574 10589 10601 10610 10619 10626 10633 10640 10643 10643 10644 10643 10646 10647 10645 10641 10638 10633 10622 10619 10614 10601 10599 10594 10587 10578 10568 10560 10549 10534 10519 10504 10489 10476 10462 10448 10433 10421 10408 10395 10387 10383 10377
10574 10584 10594 10602 10609 10618 10622 10627 10631 10634 10634 10636 10636 10634 10632 10626 10621 10615 10609 10605 10596 10594 10589 10582 10575 10567 10559 10546 10534 10518 10502 10488 10477 10463 10447 10432 10420 10408 10398 10388 10382 10378 10375
10568 10580 10589 10596 10605 10610 10613 10617 10620 10620 10620 10620 10621 10619 10617 10613 10606 10599 10602 10595 10588 10584 10579 10570 10564 10555 10544 10532 10515 10499 10486 10474 10462 10448 10433 10421 10409 10396 10389 10382 10377 10375 10374
10562 10569 10577 10586 10592 10598 10601 10602 10605 10607 10607 10606 10608 10603 10598 10599 10600 10595 10587 10582 10576 10572 10565 10558 10552 10540 10528 10514 10498 10486 10474 10461 10448 10432 10420 10407 10398 10387 10381 10377 10374 10373 10373
10557 10564 10573 10581 10587 10590 10592 10592 10590 10594 10597 10596 10593 10594 10596 10591 10586 10579 10577 10572 10566 10557 10553 10546 10537 10526 10512 10498 10487 10474 10460 10446 10433 10421 10408 10397 10388 10381 10377 10374 10372 10371 10372
10549 10555 10562 10569 10575 10580 10583 10586 10588 10592 10593 10594 10592 10588 10581 10576 10573 10573 10567 10560 10552 10543 10540 10530 10519 10508 10497 10488 10477 10461 10445 10431 10418 10407 10397 10388 10382 10377 10373 10371 10370 10371 10371
10548 10553 10558 10563 10568 10574 10578 10581 10583 10582 10583 10582 10578 10574 10570 10569 10562 10558 10554 10550 10540 10527 10522 10514 10503 10494 10486 10475 10461 10447 10432 10420 10408 10398 10389 10382 10377 10373 10370 10369 10369 10370 10371
10548 10552 10557 10560 10563 10566 10568 10571 10570 10568 10569 10567 10562 10559 10557 10555 10557 10551 10540 10532 10524 10517 10508 10497 10490 10483 10473 10460 10444 10431 10419 10408 10399 10391 10384 10378 10374 10371 10369 10368 10367 10368 10370
10543 10548 10551 10553 10555 10555 10556 10558 10558 10558 10559 10557 10556 10552 10549 10550 10544 10533 10525 10520 10512 10504 10497 10486 10477 10468 10458 10442 10427 10416 10407 10398 10391 10385 10380 10375 10372 10370 10368 10367 10366 10367 10369
10542 10546 10546 10545 10547 10549 10550 10550 10552 10552 10554 10552 10549 10545 10542 10534 10527 10523 10518 10508 10498 10492 10484 10473 10460 10450 10436 10423 10409 10400 10393 10387 10382 10378 10374 10371 10369 10368 10366 10364 10365 10365 10366
10534 10536 10539 10540 10541 10542 10544 10547 10547 10546 10546 10543 10538 10533 10529 10525 10519 10512 10503 10495 10486 10477 10466 10454 10441 10428 10415 10404 10393 10385 10380 10375 10371 10368 10365 10364 10362 10361 10361 10360 10360 10361 10363
10527 10531 10533 10539 10541 10543 10544 10543 10542 10539 10536 10532 10529 10526 10519 10513 10508 10500 10489 10478 10468 10457 10444 10431 10419 10407 10395 10385 10377 10370 10366 10362 10358 10356 10355 10354 10353 10353 10354 10353 10353 10355 10356
10534 10535 10535 10536 10536 10537 10537 10536 10533 10530 10525 10521 10517 10515 10508 10502 10494 10483 10470 10457 10443 10434 10421 10410 10398 10386 10376 10368 10362 10356 10352 10348 10345 10343 10343 10342 10342 10342 10343 10343 10343 10346 10348